Wind_Speed
20 20 16 16 15 14 12 11 10 10 10 11 11 11 11 11 11 11 11 11 11 10 10 10 10 9 9 8 8 7 6 5 4 1 0 2 4 6 6 5 6 8 4
20 20 17 15 14 12 11 10 9 9 10 10 10 10 11 11 11 11 11 11 11 11 11 11 11 10 10 10 10 9 9 9 8 6 3 1 3 1 2 3 7 9 5
21 20 17 16 14 12 11 9 9 9 10 10 10 10 11 11 11 11 11 11 11 11 11 11 11 12 12 12 11 11 11 11 9 7 5 4 2 5 6 3 4 7 6
20 19 18 15 13 11 10 9 10 10 10 10 10 10 10 9 9 9 9 10 10 9 9 10 10 10 10 11 12 12 12 11 10 9 6 4 5 11 11 8 5 8 9
19 19 17 14 12 11 10 10 11 10 11 11 11 10 10 10 10 10 10 11 11 12 12 12 12 12 11 11 11 11 11 11 11 9 4 3 9 12 8 9 10 10 12
16 16 16 13 12 12 11 11 11 11 12 12 12 10 10 10 10 11 11 12 12 12 12 12 12 12 12 12 12 12 12 12 11 10 6 5 9 15 18 13 11 11 14
16 17 16 14 13 12 12 12 13 13 12 11 10 10 10 10 10 11 11 11 11 11 12 12 12 12 13 13 13 13 13 13 12 10 9 11 12 8 13 9 8 13 15
13 17 17 15 14 13 14 14 13 11 10 9 9 9 9 9 9 11 12 13 14 14 14 14 13 14 14 13 13 13 13 13 14 12 11 13 13 13 13 17 8 14 14
16 18 17 16 15 15 14 13 11 9 8 8 9 8 8 9 10 11 14 14 15 14 13 14 13 13 11 10 7 11 10 11 11 10 13 16 18 15 13 8 7 11 13
10 16 17 16 15 14 13 11 8 6 6 7 7 6 7 10 12 12 16 16 18 16 15 15 14 11 10 6 7 10 9 6 9 15 19 11 8 10 8 7 8 11 13
13 21 21 17 14 13 10 8 6 6 5 6 5 5 7 7 7 7 9 11 14 13 13 15 14 12 15 16 12 11 9 7 11 14 15 10 8 9 10 9 8 11 14
19 18 20 15 13 14 10 6 5 4 5 7 4 4 2 6 8 8 8 8 10 10 11 7 10 14 14 18 17 13 10 10 8 10 13 12 12 9 8 11 12 11 11
26 23 18 16 13 9 10 6 5 2 6 4 4 4 4 7 8 8 8 8 9 11 11 8 15 14 17 13 9 9 11 11 8 10 7 6 8 10 11 11 13 15 14
36 27 22 18 15 12 10 12 9 8 8 6 3 3 5 7 8 9 9 8 11 13 12 14 13 16 13 12 14 14 8 11 8 7 7 9 12 14 15 16 14 15 17
37 27 26 25 22 19 19 16 14 10 7 7 3 4 6 8 6 7 8 9 10 12 14 15 13 13 10 13 13 16 13 12 12 9 11 14 14 16 16 16 16 13 11
27 27 26 25 22 19 20 18 13 9 8 3 3 4 7 7 5 5 9 11 7 10 10 9 11 9 11 16 14 13 16 14 17 14 7 12 13 14 14 12 12 7 5
25 24 23 22 22 21 20 15 12 7 5 3 4 6 7 6 4 7 11 8 8 6 3 3 5 7 11 13 14 15 16 18 20 19 19 19 17 16 14 16 13 10 5
27 26 22 19 19 16 14 13 10 11 8 3 4 4 7 6 5 8 11 5 4 1 3 2 5 7 6 10 11 11 10 12 16 18 20 20 19 16 13 11 13 15 15
33 31 24 21 17 15 17 15 12 13 8 6 5 2 5 7 5 8 9 4 6 7 4 4 12 6 7 2 5 8 9 6 11 13 16 17 16 17 17 18 18 17 18
35 29 23 21 18 18 17 15 14 13 10 7 3 1 5 7 4 5 6 5 8 10 6 2 5 6 12 9 0 2 4 8 7 13 13 12 11 12 14 16 16 18 18
35 31 27 22 21 19 19 17 15 14 9 6 1 3 4 6 4 1 4 5 8 11 9 4 6 8 13 14 5 3 1 6 6 11 12 12 10 10 13 16 17 18 16
38 34 30 25 21 18 15 12 10 10 9 4 1 2 6 6 4 1 6 5 6 8 7 7 8 12 12 16 16 8 8 8 10 5 12 12 12 13 13 16 15 13 11
39 34 30 25 21 18 20 18 19 18 11 6 4 3 5 5 3 6 6 4 3 4 9 7 6 7 7 12 16 14 5 7 6 4 9 9 10 11 9 8 10 8 8
34 29 27 26 21 21 21 19 25 18 13 10 5 1 4 3 4 5 6 3 6 9 9 7 5 4 6 11 12 14 11 14 11 5 16 11 5 5 4 7 12 6 8
31 27 27 27 23 26 22 22 22 16 13 12 8 4 1 2 3 5 6 5 5 6 10 11 13 6 10 11 12 11 8 8 12 15 15 13 14 2 6 12 14 6 7
23 22 25 24 25 24 22 20 22 16 17 16 12 6 4 5 4 5 2 3 5 3 6 9 10 11 8 8 10 11 13 11 12 12 15 13 14 18 4 13 12 4 6
Wind_Direction
139 141 149 141 133 124 115 104 95 88 82 77 74 69 63 56 50 46 42 40 36 30 26 22 16 10 4 0 357 355 352 347 343 332 104 94 99 80 52 14 351 3 342
139 143 149 141 132 125 116 107 97 90 85 79 72 65 58 53 51 50 47 43 36 27 19 11 5 2 357 352 349 347 342 337 333 328 320 279 253 334 8 15 343 348 14
144 143 145 142 137 128 119 111 101 91 81 74 67 61 60 57 52 44 37 29 22 17 14 9 1 355 350 348 344 340 335 329 324 322 323 277 307 306 267 287 329 324 338
144 146 146 141 133 127 118 108 98 89 83 78 74 71 68 60 50 38 27 18 13 4 1 1 357 354 349 346 346 346 345 341 334 323 314 308 306 312 252 254 303 308 298
141 147 141 139 136 124 115 107 99 93 86 79 72 62 50 35 26 16 9 2 357 352 350 347 346 343 341 339 340 340 339 339 341 347 316 138 336 327 227 257 292 312 301
132 143 139 139 129 127 123 113 106 96 87 70 58 45 35 21 12 6 2 357 356 353 350 346 342 338 333 332 330 329 328 328 326 332 313 266 302 297 264 276 287 306 315
139 150 142 136 135 128 118 107 99 89 79 68 51 31 20 18 20 23 23 14 8 0 354 346 340 334 329 327 324 324 321 320 317 320 320 293 332 293 242 242 282 301 320
143 151 142 140 136 126 117 109 101 92 78 59 43 34 37 47 43 38 28 14 5 356 351 342 339 333 328 324 325 327 320 318 318 317 318 302 316 302 286 304 254 300 313
144 151 144 138 130 124 118 112 104 93 78 61 53 47 38 39 39 26 18 360 3 358 357 357 0 354 348 353 1 337 323 334 348 351 342 320 308 292 298 299 276 287 306
135 146 135 130 127 123 119 117 112 99 77 56 48 40 37 27 27 13 3 353 6 15 9 6 18 7 347 333 320 320 333 342 337 353 354 341 296 284 289 289 291 302 300
143 135 129 117 116 120 108 108 103 81 61 47 50 51 31 37 20 5 355 350 5 10 0 7 356 345 342 341 341 321 321 310 336 341 348 338 298 290 282 280 290 294 297
167 147 144 123 116 125 86 79 104 74 38 39 55 77 34 27 11 359 8 343 357 343 338 16 338 348 34 31 21 7 358 333 315 344 12 8 356 343 328 306 301 293 297
172 162 148 136 130 130 103 120 112 343 321 25 15 42 19 18 10 13 23 2 351 347 1 358 11 43 38 15 12 355 358 347 305 322 1 339 322 313 311 315 307 301 288
171 166 155 147 148 146 144 156 182 259 288 315 19 33 13 14 18 28 25 3 353 3 17 25 42 43 24 7 349 347 353 352 351 322 337 336 330 324 313 307 303 292 285
166 167 159 158 168 169 172 178 208 236 261 309 2 15 12 22 41 28 360 351 357 26 35 49 36 39 22 359 19 27 10 8 351 306 318 320 328 328 335 310 291 293 274
167 167 169 176 185 198 191 199 217 226 249 283 318 20 26 38 53 6 357 9 28 39 30 44 51 38 25 31 36 34 29 28 33 35 344 303 319 330 330 326 317 301 259
170 176 182 188 197 199 200 196 189 203 223 283 314 14 31 46 27 8 15 37 57 48 3 60 96 74 35 24 39 42 32 24 25 33 39 39 37 39 35 47 56 63 124
192 203 208 201 199 189 187 189 190 194 217 267 295 352 30 35 29 26 28 58 53 25 317 54 97 89 51 53 40 39 34 33 32 39 48 45 45 49 43 48 46 44 38
205 207 212 204 205 196 188 193 198 200 207 210 247 338 22 49 30 24 23 41 23 323 0 88 74 67 14 357 41 31 27 59 32 31 28 38 40 39 41 48 52 48 39
199 204 210 209 205 189 196 192 196 198 194 208 224 96 8 58 45 29 19 28 36 21 45 112 74 47 28 18 32 74 360 55 52 46 31 9 21 14 47 33 35 37 38
193 202 209 211 203 198 192 192 188 182 188 198 194 10 47 30 93 299 57 40 41 25 47 85 97 76 44 20 270 247 156 118 78 20 31 35 23 7 39 38 41 32 37
196 202 207 212 208 194 194 169 168 168 190 197 336 63 35 28 57 150 103 119 43 13 53 72 122 80 65 40 30 76 51 143 1 4 20 37 58 61 62 46 34 33 24
196 198 209 213 208 192 176 179 180 187 195 203 199 102 26 19 54 116 131 131 73 5 33 71 74 89 73 66 54 50 60 28 80 39 26 18 72 82 62 52 46 35 23
197 204 212 209 202 187 184 196 199 207 206 188 199 53 356 29 78 85 110 115 56 37 47 62 36 78 82 84 81 65 97 62 44 26 44 38 95 96 44 14 12 347 337
198 211 210 202 189 189 192 203 211 192 192 186 198 245 275 113 106 68 72 79 62 31 41 39 45 88 93 87 71 60 53 68 48 42 27 18 52 2 330 11 12 323 324
203 203 199 196 186 188 197 202 191 187 191 193 209 222 141 101 104 102 87 54 119 64 26 40 44 53 117 97 87 71 52 38 31 27 20 17 10 22 44 25 10 10 12
Height
1537 1537 1540 1541 1541 1542 1544 1545 1546 1546 1546 1547 1547 1547 1548 1548 1549 1549 1549 1549 1549 1549 1549 1548 1547 1547 1547 1547 1546 1546 1547 1547 1547 1547 1548 1548 1549 1549 1549 1548 1547 1546 1545
1534 1537 1540 1541 1542 1543 1544 1545 1546 1546 1547 1547 1548 1549 1549 1549 1550 1550 1550 1550 1549 1549 1549 1548 1548 1547 1547 1546 1546 1545 1546 1546 1546 1546 1547 1547 1547 1548 1548 1547 1547 1546 1545
1533 1535 1538 1540 1541 1542 1544 1545 1546 1547 1547 1548 1549 1550 1550 1550 1551 1551 1551 1551 1550 1550 1550 1549 1548 1547 1546 1545 1545 1545 1544 1544 1544 1544 1545 1546 1546 1547 1547 1547 1547 1546 1546
1533 1535 1538 1540 1541 1542 1544 1545 1546 1547 1548 1549 1549 1551 1551 1552 1552 1552 1552 1552 1552 1551 1550 1550 1549 1548 1547 1546 1545 1544 1543 1543 1543 1543 1543 1544 1545 1544 1544 1546 1546 1546 1545
1534 1536 1537 1540 1541 1542 1544 1545 1546 1547 1548 1549 1550 1552 1553 1553 1553 1553 1552 1552 1552 1551 1550 1549 1548 1547 1546 1546 1545 1544 1543 1542 1541 1541 1541 1542 1542 1541 1543 1545 1544 1545 1545
1534 1536 1537 1540 1541 1543 1544 1545 1547 1548 1549 1551 1552 1553 1553 1554 1553 1553 1552 1552 1551 1550 1549 1548 1547 1546 1545 1544 1544 1543 1542 1541 1540 1540 1540 1538 1538 1539 1541 1542 1544 1543 1543
1533 1535 1537 1540 1542 1544 1546 1547 1548 1549 1551 1552 1553 1554 1554 1553 1553 1553 1552 1552 1551 1550 1549 1547 1546 1545 1544 1543 1542 1541 1540 1539 1538 1538 1538 1537 1536 1537 1539 1540 1542 1542 1539
1533 1536 1538 1540 1543 1546 1547 1548 1550 1551 1552 1553 1554 1554 1554 1553 1553 1553 1552 1552 1551 1549 1547 1546 1545 1543 1542 1541 1540 1539 1538 1537 1536 1536 1536 1535 1535 1536 1536 1537 1537 1539 1537
1534 1535 1538 1541 1543 1546 1547 1549 1551 1552 1553 1553 1553 1554 1553 1553 1553 1552 1551 1551 1550 1548 1546 1545 1543 1540 1539 1539 1538 1536 1535 1535 1534 1534 1533 1532 1532 1534 1534 1533 1534 1535 1534
1535 1536 1538 1541 1544 1546 1548 1550 1552 1553 1553 1553 1553 1553 1553 1553 1551 1551 1550 1550 1549 1547 1545 1543 1541 1539 1537 1537 1535 1534 1534 1534 1532 1531 1529 1527 1529 1532 1531 1532 1530 1531 1531
1535 1537 1539 1542 1544 1546 1549 1551 1552 1553 1554 1553 1552 1552 1552 1552 1552 1551 1550 1549 1548 1545 1543 1542 1539 1538 1537 1536 1534 1534 1533 1532 1530 1530 1528 1529 1528 1528 1529 1529 1528 1528 1529
1532 1537 1540 1541 1543 1546 1548 1550 1551 1552 1553 1553 1552 1552 1552 1551 1551 1550 1550 1548 1547 1544 1543 1542 1539 1538 1536 1534 1533 1532 1530 1530 1529 1528 1528 1528 1527 1527 1527 1525 1523 1525 1525
1531 1535 1539 1540 1543 1545 1547 1549 1549 1550 1550 1552 1552 1552 1551 1550 1549 1548 1547 1546 1545 1544 1542 1540 1538 1537 1536 1534 1532 1531 1530 1528 1528 1526 1525 1523 1523 1523 1522 1523 1522 1522 1522
1531 1534 1537 1540 1542 1545 1547 1549 1550 1550 1549 1550 1551 1551 1550 1548 1547 1546 1545 1544 1543 1542 1540 1539 1538 1537 1536 1535 1533 1531 1529 1528 1527 1525 1522 1519 1519 1519 1519 1519 1519 1519 1519
1529 1534 1536 1539 1542 1543 1546 1547 1548 1549 1549 1550 1550 1550 1548 1547 1545 1544 1544 1543 1542 1542 1541 1540 1539 1539 1536 1536 1534 1532 1530 1529 1526 1524 1522 1520 1520 1519 1518 1517 1515 1516 1516
1529 1532 1533 1536 1539 1541 1543 1544 1546 1547 1546 1549 1549 1549 1547 1545 1544 1542 1542 1542 1542 1541 1541 1540 1540 1539 1538 1536 1535 1533 1532 1529 1527 1524 1523 1521 1519 1519 1518 1516 1513 1513 1512
1530 1533 1532 1532 1536 1539 1541 1542 1544 1545 1544 1545 1547 1547 1546 1544 1542 1541 1542 1541 1542 1541 1540 1540 1540 1539 1538 1537 1536 1534 1533 1531 1529 1527 1524 1522 1520 1519 1518 1517 1515 1513 1511
1528 1530 1532 1532 1532 1537 1541 1540 1542 1543 1544 1541 1544 1546 1544 1542 1540 1540 1540 1541 1541 1540 1540 1539 1539 1539 1537 1537 1537 1536 1535 1533 1532 1530 1528 1526 1524 1523 1521 1519 1518 1516 1515
1523 1525 1528 1530 1531 1535 1538 1539 1541 1542 1543 1541 1543 1544 1543 1541 1538 1538 1540 1540 1541 1540 1539 1539 1538 1537 1537 1537 1537 1537 1536 1534 1534 1532 1529 1527 1526 1525 1524 1522 1520 1518 1517
1520 1521 1524 1528 1530 1532 1534 1537 1539 1540 1541 1541 1543 1543 1541 1540 1538 1538 1539 1539 1539 1538 1538 1539 1538 1538 1537 1535 1536 1536 1537 1536 1535 1533 1531 1529 1527 1527 1526 1524 1522 1520 1519
1515 1515 1518 1523 1527 1529 1531 1533 1536 1537 1539 1541 1541 1541 1540 1539 1539 1538 1539 1538 1538 1538 1538 1538 1538 1537 1537 1535 1534 1535 1536 1536 1536 1535 1533 1531 1529 1528 1527 1526 1525 1523 1522
1507 1511 1516 1521 1524 1526 1529 1532 1534 1536 1537 1540 1540 1540 1539 1538 1539 1539 1539 1538 1537 1538 1539 1539 1538 1537 1537 1536 1535 1534 1536 1538 1536 1536 1534 1532 1531 1530 1528 1527 1526 1525 1524
1499 1505 1513 1519 1524 1526 1527 1529 1534 1536 1537 1538 1539 1539 1538 1538 1539 1539 1540 1538 1539 1539 1539 1538 1538 1537 1537 1537 1536 1535 1536 1538 1537 1538 1536 1533 1531 1530 1529 1527 1526 1525 1524
1498 1507 1510 1516 1520 1525 1528 1533 1535 1534 1534 1535 1536 1536 1537 1537 1539 1539 1540 1540 1539 1540 1538 1539 1539 1538 1538 1538 1538 1537 1537 1537 1536 1538 1538 1535 1534 1531 1529 1528 1527 1525 1524
1496 1502 1509 1512 1516 1521 1527 1533 1537 1537 1533 1533 1534 1535 1537 1538 1539 1539 1540 1541 1540 1539 1539 1539 1539 1538 1539 1540 1539 1538 1538 1536 1537 1537 1537 1535 1535 1533 1531 1529 1527 1525 1524
1506 1498 1504 1512 1516 1521 1527 1532 1536 1537 1535 1534 1534 1534 1535 1537 1539 1539 1540 1541 1540 1541 1541 1540 1539 1540 1541 1541 1541 1540 1539 1538 1538 1538 1537 1536 1534 1532 1532 1531 1529 1527 1525